Lapse_Rate
0.5 0.8 1.3 2.3 2.7 2.1 1.8 2.2 4.0 5.5 5.9 5.3 5.4 4.9 4.1 3.6 3.5 3.3 4.1 4.2 4.2 4.5 5.0 4.8 5.2 5.4 6.4
1.0 1.2 1.9 2.6 2.3 1.6 1.7 2.1 3.2 5.0 5.1 4.3 5.6 5.1 4.5 3.9 3.3 3.3 3.7 4.1 4.2 4.6 4.8 5.3 5.8 5.6 5.9
2.2 2.1 1.7 0.8 0.4 0.7 0.7 1.3 2.9 3.8 4.0 4.3 4.4 4.3 4.2 3.7 3.5 3.5 3.6 3.8 3.5 3.6 4.2 4.1 3.6 4.6 5.5
2.9 2.4 1.7 0.7 0.4 0.9 0.7 0.0 0.3 1.5 2.1 3.0 3.3 3.7 3.7 3.4 3.0 2.9 3.0 3.3 3.7 3.6 3.8 3.5 3.6 4.3 5.2
2.0 0.5 -0.0 0.2 0.4 0.1 0.6 -0.4 -1.0 -1.3 -0.6 0.2 1.0 1.4 2.0 2.3 2.5 2.7 2.8 2.9 3.2 3.6 3.9 3.9 4.1 4.4 5.0
-2.1 0.3 -0.5 -0.2 -0.8 -0.1 -0.5 -1.9 -0.3 -0.6 -0.4 -0.0 0.3 -0.4 0.8 2.0 2.9 2.9 2.9 3.3 3.9 4.3 4.4 4.7 4.9 5.5 5.9
0.9 0.3 -0.7 -0.5 -0.9 -1.4 -0.4 -1.7 -0.9 -0.7 -0.3 -0.1 -0.7 -0.0 0.7 1.9 3.1 3.2 3.2 3.6 3.9 4.2 4.6 4.7 5.2 5.5 5.6
0.2 -0.3 -0.3 -0.8 -0.1 -0.3 -0.7 -1.4 -1.1 -0.8 -0.9 -1.5 -1.4 -0.1 0.1 1.4 2.6 3.8 4.2 4.0 4.1 4.3 4.5 4.5 4.6 4.9 5.0
1.2 1.3 1.4 1.1 0.2 -1.1 -1.5 -1.2 -0.8 -0.3 -1.4 -0.6 -1.6 -1.0 -0.9 -0.5 1.5 3.2 3.5 3.7 3.7 3.7 3.6 3.8 4.1 4.5 4.3
-0.6 0.1 0.4 1.7 1.4 -0.1 -1.4 -3.0 -2.7 -1.9 -1.5 -2.2 -2.5 -2.3 -2.4 -1.3 -0.3 1.1 1.6 2.5 2.9 3.6 3.6 3.8 3.8 3.6 2.7
-1.2 -1.6 -1.5 -1.3 -1.5 -0.8 -0.5 -3.5 -4.2 -4.4 -0.9 -3.6 -6.6 -3.7 -4.0 -2.4 -1.8 -0.5 0.6 1.0 1.6 2.1 2.3 2.8 3.0 3.3 2.7
-0.8 -1.1 -1.3 -1.6 -1.7 -0.8 -0.7 -0.8 -0.3 -1.6 -0.1 -0.3 -5.9 -5.2 -6.0 -3.5 -0.8 -1.3 -1.2 0.7 1.2 1.0 1.5 2.5 2.7 2.8 2.7
-0.4 -1.0 -1.1 -1.0 -1.6 -2.2 -1.8 -1.1 -0.4 0.1 -0.1 0.1 -2.9 -6.4 -4.2 -3.4 -2.8 -2.0 -0.5 -0.9 1.3 -0.7 2.0 2.0 1.8 2.1 1.6
-0.3 -0.9 -1.8 -2.2 -2.0 -3.7 -4.6 -5.4 -5.1 -3.7 -0.1 0.2 0.3 -1.3 -1.9 -0.6 -2.3 -3.0 -2.4 -2.0 -2.8 -1.1 -0.1 -0.1 1.0 1.6 2.5
-0.7 -0.9 -0.3 -0.7 -1.1 -3.9 -5.0 -5.3 -4.4 -4.0 -3.1 -2.1 0.6 0.1 -0.4 -1.7 -1.9 -1.4 -1.1 0.7 1.6 -1.7 -1.4 -1.5 -0.5 1.7 2.6
-0.8 -0.4 -0.2 -0.2 -1.0 -3.1 -4.4 -2.8 -1.5 -2.7 -2.8 -3.2 -2.7 -1.5 -0.3 0.2 0.8 -0.4 -0.4 1.3 1.8 -1.1 -0.6 -0.7 -1.6 1.5 3.0
-0.0 -0.5 -0.5 -0.6 1.3 -0.9 -0.9 -0.3 -0.4 -1.6 -1.0 -2.6 -3.4 -2.3 -0.0 0.0 0.4 2.8 -0.2 -0.7 -0.7 0.2 1.6 1.2 0.7 0.6 1.8
Wind_Speed
2 2 2 3 4 3 4 5 7 8 8 11 10 11 12 13 13 14 14 13 12 9 7 6 4 4 3
2 2 2 2 3 3 3 5 6 7 9 10 11 10 10 10 11 10 11 10 9 8 8 6 7 6 6
3 1 2 1 2 2 2 4 6 7 8 9 9 9 9 10 10 9 8 8 9 10 9 7 7 5 4
3 2 2 1 2 2 1 3 2 6 6 8 7 7 6 6 6 6 6 6 5 5 5 5 5 4 3
3 2 2 1 3 2 2 1 2 3 2 4 4 4 6 5 4 4 3 2 1 1 1 2 2 2 1
2 3 3 3 2 3 3 2 1 2 1 1 3 1 3 2 2 3 2 1 1 1 1 0 1 1 1
4 4 4 5 4 3 2 2 2 0 1 1 3 1 3 2 2 4 2 1 0 1 3 3 2 0 1
4 5 3 7 4 4 4 4 3 2 1 2 1 0 4 3 3 2 2 2 2 3 3 2 2 2 3
11 11 11 10 10 5 2 3 1 1 2 2 0 1 2 2 3 2 2 2 1 1 1 1 1 2 2
4 7 7 8 7 3 4 3 2 1 2 2 0 1 2 1 2 3 3 4 3 2 2 2 2 3 4
3 3 3 4 4 6 4 3 3 1 3 3 1 1 2 1 2 2 3 4 3 3 3 3 4 6 6
3 2 2 2 1 5 6 6 4 3 7 5 3 3 2 1 1 2 2 5 4 6 5 4 7 8 7
2 2 2 2 7 4 4 4 3 4 6 5 4 3 3 2 2 1 2 2 9 3 2 0 6 9 5
2 2 2 2 2 2 2 1 2 2 6 10 10 7 2 3 3 3 2 2 1 2 3 6 11 11 9
2 3 2 3 2 2 2 2 2 2 2 2 8 12 9 4 2 4 3 4 5 2 1 3 4 11 12
3 3 4 4 4 2 2 3 3 3 2 2 0 1 1 7 16 4 3 6 6 2 2 2 2 6 11
5 5 4 4 7 4 4 4 5 3 4 3 2 3 2 4 2 10 5 2 2 2 3 3 5 4 10
Wind_Direction
107 123 107 133 121 95 83 63 54 65 57 48 47 51 55 54 52 56 69 74 76 84 97 97 101 93 112
128 143 115 135 112 104 79 64 62 60 59 54 50 56 55 65 63 64 69 74 81 86 89 98 101 94 103
132 126 115 136 103 87 96 69 51 56 57 56 61 70 68 70 72 67 68 82 83 83 83 83 76 67 62
106 117 114 149 114 139 100 26 39 27 49 51 57 65 78 83 68 61 59 64 77 83 77 68 54 33 15
115 116 133 132 166 164 122 131 31 28 26 32 31 54 47 61 55 38 38 31 39 46 40 50 34 20 24
150 157 168 163 139 156 137 138 162 23 77 13 26 44 16 28 33 40 29 32 72 106 104 91 201 132 88
163 182 154 172 146 131 168 129 146 288 105 125 5 98 2 345 16 349 303 300 103 81 96 54 45 154 235
144 150 136 147 154 161 152 107 74 55 91 141 352 279 338 351 354 12 50 191 120 101 121 62 36 31 16
113 122 131 136 141 113 102 107 112 222 10 111 1 347 349 329 354 50 103 95 99 37 352 313 318 270 240
66 82 96 132 145 139 136 141 136 26 242 113 88 109 4 311 330 23 21 31 30 38 358 310 276 307 325
128 112 97 103 100 111 148 137 137 199 198 105 141 33 95 279 310 5 88 17 349 332 314 295 290 293 291
148 157 154 149 166 146 124 113 116 155 156 138 151 140 131 341 250 340 292 332 148 338 310 284 295 284 282
176 188 182 168 154 125 111 122 135 169 183 188 151 154 143 191 216 246 324 297 303 250 173 192 290 278 279
184 165 115 142 173 151 138 123 83 299 235 226 218 175 181 210 191 244 213 260 293 279 272 285 289 267 250
173 172 185 171 188 156 145 145 162 202 279 305 231 227 219 182 226 218 210 240 256 257 284 287 246 260 259
187 192 192 197 201 182 149 172 193 202 211 236 256 33 316 253 227 236 236 256 264 248 235 253 250 242 257
202 204 195 198 216 204 200 204 220 199 211 194 163 152 220 249 282 232 206 225 203 235 230 232 274 266 262